Location: Unspecified
(0.0000°N, 0.0000°E)
Time: 12:50:36
(UTC+00:00)

A-11 Canister half - Visible Passes

Search period start: 17 February 2019 00:00
Search period end: 27 February 2019 00:00
Orbit: 1516 x 1684 km, 47.2° (Epoch: 16 February)

Date Brightness Start Highest point End Pass type
(mag) Time Alt. Az. Time Alt. Az. Time Alt. Az.
17 Feb 10.5 03:55:38 13° N 04:01:54 25° NE 04:09:05 10° E visible
17 Feb 10.6 18:49:28 10° WSW 18:58:03 31° NW 19:06:31 10° N visible
18 Feb 10.5 03:34:41 17° NNE 03:38:57 23° NE 03:45:47 10° E visible
18 Feb 9.0 05:34:33 10° NW 05:43:43 70° SW 05:53:03 10° SSE visible
18 Feb 10.6 18:26:14 10° WSW 18:35:05 34° NW 18:43:50 10° NNE visible
19 Feb 10.5 03:13:46 19° NNE 03:16:00 21° NE 03:22:26 10° E visible
19 Feb 8.9 05:12:02 12° NW 05:20:50 76° SW 05:30:11 10° SE visible
20 Feb 10.6 02:52:52 19° NE 02:53:04 19° NE 02:59:00 10° E visible
20 Feb 8.9 04:51:08 21° NW 04:57:57 83° SW 05:07:18 10° SE visible
21 Feb 10.9 02:31:59 16° ENE 02:31:59 16° ENE 02:35:31 10° E visible
21 Feb 8.8 04:30:15 33° NW 04:35:03 89° WSW 04:44:24 10° SE visible
22 Feb 11.1 02:11:04 11° ENE 02:11:04 11° ENE 02:11:55 10° ENE visible
22 Feb 8.8 04:09:20 51° NNW 04:12:10 84° NE 04:21:30 10° SE visible
23 Feb 8.8 03:48:24 72° N 03:49:17 78° NE 03:58:34 10° SE visible
23 Feb 10.2 05:47:49 10° W 05:54:10 20° SW 06:00:37 10° S visible
24 Feb 9.1 03:27:26 66° E 03:27:26 66° E 03:35:38 10° SE visible
24 Feb 10.1 05:25:41 13° W 05:31:13 23° SW 05:38:04 10° S visible
25 Feb 9.6 03:06:25 46° ESE 03:06:25 46° ESE 03:12:40 10° SE visible
25 Feb 9.9 05:04:40 20° W 05:08:17 25° SW 05:15:30 10° S visible
26 Feb 10.2 02:45:22 31° ESE 02:45:22 31° ESE 02:49:41 10° SE visible
26 Feb 9.8 04:43:36 26° WSW 04:45:21 27° SW 04:52:53 10° S visible
